Location: Unspecified
(0.0000°N, 0.0000°E)
Time: 08:26:41
(UTC+00:00)

S-56A Canister/Altair - All Passes

Search period start: 24 August 2016 00:00
Search period end: 03 September 2016 00:00
Orbit: 640 x 2494 km, 38.9° (Epoch: 23 August)

Date Brightness Start Highest point End Pass type
(mag) Time Alt. Az. Time Alt. Az. Time Alt. Az.
24 Aug - 02:13:43 10° WNW 02:21:41 16° NNW 02:29:11 10° N visible
24 Aug - 08:48:58 10° N 08:51:53 13° NNE 08:54:27 10° ENE daylight
24 Aug - 10:51:07 10° NW 10:56:26 76° SW 11:00:55 10° SE daylight
24 Aug - 19:22:14 10° SSE 19:26:59 13° SE 19:32:20 10° ESE visible
24 Aug - 21:21:44 10° SSW 21:33:19 54° SE 21:47:46 10° ENE visible
24 Aug - 23:26:44 10° WSW 23:40:04 57° NW 23:54:41 10° NE visible
25 Aug - 01:38:51 10° WNW 01:48:14 19° NW 01:57:13 10° N visible
25 Aug - 08:16:55 10° N 08:19:17 12° NNE 08:21:24 10° NE daylight
25 Aug - 10:18:30 10° NW 10:24:15 83° NE 10:28:49 10° SE daylight
25 Aug - 20:49:28 10° SSW 21:00:14 47° SE 21:14:02 10° ENE visible
25 Aug - 22:53:45 10° WSW 23:06:44 64° NW 23:21:42 10° NE visible
26 Aug - 01:04:26 10° W 01:14:47 22° NW 01:24:59 10° N visible
26 Aug - 07:45:02 10° NNE 07:46:36 11° NNE 07:48:04 10° NE daylight
26 Aug - 09:45:51 10° NW 09:52:01 64° NE 09:56:41 10° ESE daylight
26 Aug - 11:54:27 10° SW 11:55:31 11° SW 11:56:35 10° SSW daylight
26 Aug - 20:17:21 10° SSW 20:27:14 40° SE 20:40:08 10° ENE visible
26 Aug - 22:20:56 10° WSW 22:33:26 72° NW 22:48:36 10° NE visible
27 Aug - 00:30:20 10° W 00:41:20 25° NW 00:52:33 10° NNE visible
27 Aug - 09:13:10 10° NW 09:19:43 51° NE 09:24:31 10° ESE daylight
27 Aug - 11:20:23 10° WSW 11:23:13 15° SW 11:25:52 10° S daylight
27 Aug - 19:45:21 10° SSW 19:54:19 33° SE 20:06:04 10° ENE visible
27 Aug - 21:48:14 10° SW 22:00:11 80° NW 22:15:23 10° NE visible
27 Aug - 23:56:33 10° W 00:07:53 29° NW 00:19:56 10° NNE visible
28 Aug - 08:40:27 10° NNW 08:47:20 43° NE 08:52:17 10° ESE daylight
28 Aug - 10:46:57 10° W 10:51:00 20° SW 10:54:29 10° S daylight
28 Aug - 19:13:31 10° S 19:21:28 27° SE 19:31:49 10° E visible
28 Aug - 21:15:42 10° SW 21:27:01 88° NW 21:42:03 10° NE visible
28 Aug - 23:23:00 10° W 23:34:28 32° NW 23:47:11 10° NNE visible
29 Aug - 08:07:41 10° NNW 08:14:53 36° NE 08:20:01 10° ESE daylight
29 Aug - 10:13:43 10° WNW 10:18:48 28° SW 10:22:53 10° SSE daylight
29 Aug - 18:41:53 10° S 18:48:41 22° SE 18:57:21 10° E visible
29 Aug - 20:43:17 10° SW 20:53:57 82° SE 21:08:38 10° NE visible
29 Aug - 22:49:42 10° W 23:01:04 36° NW 23:14:18 10° NNE visible
30 Aug - 01:06:35 10° NW 01:10:47 11° NNW 01:14:58 10° N visible
30 Aug - 07:34:52 10° NNW 07:42:20 32° NNE 07:47:40 10° E daylight
30 Aug - 09:40:32 10° WNW 09:46:35 37° SW 09:51:10 10° SSE daylight
30 Aug - 18:10:32 10° S 18:15:58 17° SE 18:22:35 10° E visible
30 Aug - 20:10:59 10° SW 20:20:57 73° SE 20:35:06 10° NE visible
30 Aug - 22:16:35 10° WSW 22:27:44 40° NW 22:41:19 10° NNE visible
31 Aug - 00:31:02 10° NW 00:37:08 13° NNW 00:43:19 10° N visible
31 Aug - 07:02:01 10° NNW 07:09:42 29° NNE 07:15:15 10° E daylight
31 Aug - 09:07:22 10° WNW 09:14:22 50° SW 09:19:22 10° SSE daylight
31 Aug - 17:39:50 10° SSE 17:43:18 13° SE 17:47:12 10° ESE daylight
31 Aug - 19:38:47 10° SW 19:48:04 63° SE 20:01:29 10° ENE visible
31 Aug - 21:43:39 10° WSW 21:54:27 45° NW 22:08:14 10° NNE visible
31 Aug - 23:56:15 10° WNW 00:03:31 15° NNW 00:11:05 10° N visible
01 Sep - 06:29:06 10° NNW 06:36:58 26° NNE 06:42:45 10° E daylight
01 Sep - 08:34:12 10° NW 08:42:06 65° SW 08:47:29 10° SE daylight
01 Sep - 19:06:43 10° SSW 19:15:17 53° SE 19:27:46 10° ENE visible
01 Sep - 21:10:52 10° WSW 21:21:14 50° NW 21:35:05 10° NNE visible
01 Sep - 23:21:57 10° WNW 23:29:57 17° NNW 23:38:34 10° N visible
02 Sep - 05:56:10 10° NNW 06:04:09 24° NNE 06:10:09 10° E daylight
02 Sep - 08:01:01 10° NW 08:09:45 81° SW 08:15:31 10° SE daylight
02 Sep - 18:34:45 10° SSW 18:42:36 44° SE 18:53:58 10° ENE visible
02 Sep - 20:38:15 10° WSW 20:48:06 56° NW 21:01:51 10° NE visible
02 Sep - 22:48:01 10° WNW 22:56:26 19° NNW 23:05:51 10° NNE visible
